1505962800.72,46723,14.44,73038.3,-2.37,-3.19,-3.19,0,*52
1505962801.91,46724,14.44,72970.3,-2.35,-3.11,-3.15,0,*53
1505962803.11,46725,14.44,73030.5,-2.35,-3.15,-3.15,0,*56
1505962804.34,46726,14.44,73062.0,-2.37,-3.19,-3.27,0,*5A
1505962805.54,46727,14.38,73036.5,-2.35,-3.15,-3.15,0,*54
1505962806.76,46728,14.44,73046.5,-2.37,-3.19,-3.19,0,*59
1505962807.95,46729,14.44,73040.3,-2.35,-3.23,-3.15,0,*5F
1505962809.15,46730,14.38,73030.8,-2.35,-3.15,-3.15,0,*52
1505962810.34,46731,14.44,73042.0,-2.35,-3.23,-3.23,0,*53
1505962811.52,46732,14.38,73050.5,-2.35,-3.23,-3.23,0,*50
1505962812.72,46733,14.44,73064.0,-2.35,-3.23,-3.15,0,*54
1505962813.94,46734,14.38,73060.5,-2.37,-3.19,-3.19,0,*54
1505962815.13,46735,14.38,73048.0,-2.35,-3.23,-3.15,0,*52
1505962816.35,46736,14.44,73056.3,-2.37,-3.19,-3.19,0,*56
1505962817.57,46737,14.44,73046.5,-2.37,-3.19,-3.19,0,*57
1505962818.79,46738,14.44,73030.5,-2.33,-3.15,-3.15,0,*5C
1505962820.02,46739,14.38,73018.0,-2.37,-3.19,-3.19,0,*59
1505962821.21,46740,14.44,73030.0,-2.35,-3.15,-3.15,0,*55
1505962822.43,46741,14.44,73034.8,-2.37,-3.19,-3.19,0,*56
1505962823.63,46742,14.38,73042.5,-2.35,-3.15,-3.15,0,*57
1505962824.83,46743,14.44,73054.3,-2.35,-3.15,-3.15,0,*56
1505962826.05,46744,14.44,73054.8,-2.37,-3.19,-3.19,0,*53
1505962827.27,46745,14.44,73050.8,-2.33,-3.15,-3.15,0,*56
1505962828.47,46746,14.38,73016.3,-2.35,-3.15,-3.15,0,*53
1505962829.66,46747,14.44,73036.5,-2.35,-3.23,-3.15,0,*57
1505962830.86,46748,14.38,73046.8,-2.35,-3.15,-3.15,0,*5D
1505962832.06,46749,14.38,73026.3,-2.35,-3.15,-3.15,0,*5C
1505962833.26,46750,14.44,72992.5,-2.35,-3.15,-3.15,0,*54
1505962834.45,46751,14.38,73044.5,-2.35,-3.15,-3.15,0,*55
1505962835.68,46752,14.38,73054.3,-2.33,-3.27,-3.15,0,*51
1505962836.87,46753,14.44,73040.0,-2.35,-3.27,-3.23,0,*53
1505962838.07,46754,14.44,73004.3,-2.35,-3.19,-3.19,0,*50
1505962839.29,46755,14.44,73016.8,-2.37,-3.19,-3.19,0,*53
1505962840.51,46756,14.44,73038.0,-2.33,-3.15,-3.23,0,*51
1505962841.7,46757,14.44,72992.8,-2.35,-3.23,-3.15,0,*56
1505962842.93,46758,14.44,72954.5,-2.37,-3.31,-3.27,0,*59
1505962844.13,46759,14.44,72988.5,-2.35,-3.23,-3.27,0,*59
1505962845.34,46760,14.38,72984.3,-2.35,-3.27,-3.27,0,*57
1505962846.54,46761,14.38,73024.8,-2.35,-3.27,-3.27,0,*56
1505962847.73,46762,14.44,73032.0,-2.35,-3.23,-3.23,0,*55
1505962848.92,46763,14.38,73030.8,-2.35,-3.23,-3.23,0,*54
1505962850.14,46764,14.38,73022.3,-2.37,-3.19,-3.19,0,*51
1505962851.33,46765,14.44,73034.5,-2.35,-3.23,-3.15,0,*57
1505962852.52,46766,14.38,73042.0,-2.35,-3.23,-3.15,0,*54
1505962853.72,46767,14.38,73028.5,-2.35,-3.15,-3.15,0,*50
1505962854.94,46768,14.44,73038.8,-2.37,-3.19,-3.19,0,*5D
1505962856.16,46769,14.38,73032.3,-2.37,-3.19,-3.19,0,*5C
1505962857.38,46770,14.44,73032.8,-2.33,-3.15,-3.15,0,*50
1505962858.58,46771,14.44,73050.0,-2.35,-3.15,-3.15,0,*57
1505962859.78,46772,14.44,73050.5,-2.35,-3.15,-3.15,0,*54
1505962861.01,46773,14.44,73054.8,-2.37,-3.19,-3.27,0,*5A
1505962862.21,46774,14.38,73050.5,-2.35,-3.15,-3.15,0,*52
1505962863.41,46775,14.44,73014.5,-2.35,-3.15,-3.11,0,*57
1505962864.61,46776,14.38,72998.8,-2.35,-3.15,-3.11,0,*54
1505962865.81,46777,14.38,73002.3,-2.35,-3.15,-3.11,0,*55
1505962867.03,46778,14.44,72998.0,-2.37,-3.19,-3.15,0,*50
1505962868.25,46779,14.44,73006.3,-2.37,-3.19,-3.15,0,*51
1505962869.45,46780,14.44,72992.5,-2.35,-3.15,-3.15,0,*59
1505962870.64,46781,14.38,72992.3,-2.35,-3.15,-3.15,0,*58
1505962871.83,46782,14.44,72978.0,-2.35,-3.23,-3.23,0,*5B
1505962873.03,46783,14.44,72972.3,-2.35,-3.27,-3.23,0,*5E
1505962874.22,46784,14.44,72982.8,-2.35,-3.27,-3.23,0,*59
1505962875.42,46785,14.44,73028.3,-2.35,-3.27,-3.23,0,*58
1505962876.62,46786,14.38,72974.5,-2.35,-3.35,-3.35,0,*5F
1505962877.85,46787,14.44,72962.5,-2.37,-3.31,-3.39,0,*54
1505962879.08,46788,14.38,73028.0,-2.37,-3.31,-3.27,0,*54
1505962880.31,46789,14.44,73022.8,-2.37,-3.27,-3.31,0,*55
1505962881.53,46790,14.38,73024.5,-2.37,-3.27,-3.19,0,*57
1505962882.76,46791,14.44,73036.8,-2.37,-3.19,-3.27,0,*56
1505962883.95,46792,14.38,73036.8,-2.35,-3.23,-3.15,0,*5F
1505962885.17,46793,14.44,73030.5,-2.33,-3.15,-3.23,0,*58
1505962886.36,46794,14.38,73020.0,-2.35,-3.23,-3.15,0,*59
1505962887.55,46795,14.44,73038.5,-2.35,-3.23,-3.23,0,*5D
1505962888.78,46796,14.44,73000.8,-2.37,-3.19,-3.27,0,*51
1505962889.99,46797,14.44,73040.5,-2.35,-3.27,-3.27,0,*5F
1505962891.19,46798,14.38,73030.3,-2.35,-3.27,-3.27,0,*50
1505962892.42,46799,14.38,73022.0,-2.37,-3.27,-3.27,0,*53
1505962893.65,46800,14.44,73048.3,-2.37,-3.27,-3.31,0,*5B
1505962894.86,46801,14.38,73010.3,-2.33,-3.23,-3.23,0,*59
1505962896.05,46802,14.44,72968.8,-2.35,-3.23,-3.23,0,*5C
1505962897.28,46803,14.44,72990.5,-2.37,-3.31,-3.31,0,*5F
1505962898.5,46804,14.44,73008.3,-2.37,-3.39,-3.39,0,*58
1505962899.71,46805,14.38,72946.8,-2.35,-3.27,-3.35,0,*58
1505962900.93,46806,14.44,72954.3,-2.37,-3.39,-3.31,0,*52
1505962902.16,46807,14.44,72968.3,-2.37,-3.31,-3.31,0,*5B
1505962903.38,46808,14.38,72952.5,-2.37,-3.27,-3.31,0,*53
1505962904.61,46809,14.38,72964.5,-2.37,-3.31,-3.31,0,*55
1505962905.84,46810,14.38,72968.3,-2.37,-3.27,-3.31,0,*5A
1505962907.07,46811,14.44,72938.3,-2.37,-3.31,-3.27,0,*5B
1505962908.29,46812,14.44,72958.0,-2.37,-3.39,-3.31,0,*57
1505962909.52,46813,14.38,72974.3,-2.37,-3.31,-3.31,0,*5E
1505962910.74,46814,14.44,73020.8,-2.37,-3.31,-3.31,0,*59
1505962911.97,46815,14.44,73038.5,-2.37,-3.31,-3.31,0,*58
1505962913.2,46816,14.38,73012.5,-2.37,-3.27,-3.31,0,*5C
1505962914.42,46817,14.44,73002.3,-2.37,-3.27,-3.19,0,*57
1505962915.65,46818,14.44,72988.3,-2.37,-3.27,-3.19,0,*58
1505962916.87,46819,14.38,72964.8,-2.37,-3.27,-3.19,0,*59
1505962918.1,46820,14.44,72982.8,-2.37,-3.19,-3.27,0,*53
1505962919.33,46821,14.44,73010.0,-2.37,-3.27,-3.27,0,*5F
1505962920.57,46822,14.44,73056.0,-2.37,-3.27,-3.27,0,*5C
1505962921.8,46823,14.38,73026.0,-2.37,-3.27,-3.27,0,*5D
1505962923.03,46824,14.38,73030.8,-2.37,-3.27,-3.27,0,*5A
1505962924.25,46825,14.38,73034.8,-2.37,-3.19,-3.19,0,*5B
1505962925.47,46826,14.38,73026.3,-2.37,-3.19,-3.19,0,*58
1505962926.7,46827,14.38,73020.3,-2.37,-3.27,-3.19,0,*54
1505962927.9,46828,14.38,72988.5,-2.35,-3.19,-3.27,0,*59
1505962929.13,46829,14.38,72972.5,-2.37,-3.27,-3.19,0,*5A
1505962930.36,46830,14.44,73054.5,-2.37,-3.27,-3.27,0,*5F
1505962931.55,46831,14.44,73066.3,-2.35,-3.23,-3.23,0,*5C
1505962932.77,46832,14.44,73026.8,-2.37,-3.39,-3.31,0,*55
1505962934.0,46833,14.38,73024.8,-2.37,-3.27,-3.27,0,*5C
1505962935.23,46834,14.38,73016.8,-2.37,-3.19,-3.27,0,*56
1505962936.46,46835,14.38,73034.0,-2.37,-3.19,-3.27,0,*57
1505962937.68,46836,14.44,72992.0,-2.37,-3.19,-3.19,0,*59
1505962938.87,46837,14.38,72998.5,-2.35,-3.23,-3.19,0,*53
1505962940.1,46838,14.44,73016.0,-2.37,-3.27,-3.19,0,*5A
1505962941.33,46839,14.38,73000.3,-2.37,-3.27,-3.27,0,*56
1505962942.55,46840,14.38,73004.8,-2.37,-3.19,-3.19,0,*58
1505962943.78,46841,14.38,73028.5,-2.37,-3.27,-3.27,0,*59
1505962944.98,46842,14.44,73060.3,-2.35,-3.27,-3.23,0,*5C
1505962946.21,46843,14.44,73046.3,-2.37,-3.39,-3.27,0,*54
1505962947.44,46844,14.38,73032.3,-2.37,-3.39,-3.31,0,*54
1505962948.66,46845,14.38,72974.5,-2.37,-3.39,-3.39,0,*5D
1505962949.94,46846,14.44,72976.3,-2.37,-3.43,-3.43,0,*5E
1505962951.14,46847,14.38,72968.5,-2.35,-3.39,-3.35,0,*51
1505962952.37,46848,14.38,72946.8,-2.37,-3.31,-3.39,0,*58
1505962953.61,46849,14.38,72946.8,-2.37,-3.43,-3.39,0,*5C
1505962954.86,46850,14.38,72984.3,-2.39,-3.43,-3.43,0,*57
1505962956.09,46851,14.38,72966.3,-2.37,-3.39,-3.39,0,*58
1505962957.32,46852,14.38,73016.3,-2.37,-3.39,-3.31,0,*53
1505962958.54,46853,14.38,73036.0,-2.37,-3.31,-3.31,0,*5A
1505962959.77,46854,14.38,73042.0,-2.37,-3.31,-3.27,0,*5A
1505962961.0,46855,14.38,73040.8,-2.37,-3.19,-3.27,0,*51
1505962962.23,46856,14.44,73048.5,-2.37,-3.27,-3.19,0,*52
1505962963.46,46857,14.44,73036.0,-2.37,-3.27,-3.27,0,*5E
1505962964.66,46858,14.38,73046.8,-2.39,-3.31,-3.23,0,*5C
1505962965.85,46859,14.38,73036.0,-2.39,-3.23,-3.23,0,*5E
1505962967.08,46860,14.44,73060.8,-2.37,-3.19,-3.27,0,*57
1505962968.3,46861,14.44,73056.5,-2.37,-3.19,-3.19,0,*5B
1505962969.52,46862,14.44,73046.0,-2.37,-3.31,-3.31,0,*58
1505962970.8,46863,14.44,73048.5,-2.37,-3.51,-3.51,0,*59
1505962972.07,46864,14.38,73046.8,-2.37,-3.63,-3.63,0,*5E
1505962973.3,46865,14.44,73042.5,-2.37,-3.79,-3.75,0,*53
1505962974.54,46866,14.38,73000.5,-2.37,-3.75,-3.75,0,*5C
1505962975.81,46867,14.44,72958.0,-2.41,-3.71,-3.71,0,*5C
1505962977.08,46868,14.38,72984.0,-2.41,-3.55,-3.59,0,*5F
1505962978.34,46869,14.38,72998.0,-2.41,-3.55,-3.47,0,*51
1505962979.58,46870,14.38,73000.8,-2.39,-3.55,-3.47,0,*56
1505962980.85,46871,14.38,73034.5,-2.41,-3.55,-3.47,0,*58
1505962982.07,46872,14.38,73012.0,-2.41,-3.35,-3.35,0,*58
1505962983.28,46873,14.38,73044.5,-2.39,-3.35,-3.35,0,*56
1505962984.5,46874,14.38,73040.3,-2.41,-3.35,-3.35,0,*5E
1505962985.71,46875,14.38,73038.5,-2.39,-3.35,-3.35,0,*50
1505962986.91,46876,14.38,73030.0,-2.39,-3.35,-3.31,0,*57
1505962988.11,46877,14.38,73030.0,-2.39,-3.31,-3.31,0,*52
1505962989.31,46878,14.38,73028.0,-2.39,-3.23,-3.31,0,*5E
1505962990.52,46879,14.38,73044.3,-2.41,-3.23,-3.23,0,*53
1505962991.74,46880,14.44,73030.8,-2.41,-3.19,-3.15,0,*59
1505962992.94,46881,14.44,73026.0,-2.39,-3.19,-3.19,0,*5B
1505962994.14,46882,14.44,73002.3,-2.39,-3.19,-3.19,0,*58
1505962995.33,46883,14.38,72972.0,-2.39,-3.19,-3.19,0,*59
1505962996.53,46884,14.44,73058.5,-2.39,-3.19,-3.19,0,*5E
1505962997.73,46885,14.44,73008.8,-2.39,-3.31,-3.31,0,*5F
1505962998.93,46886,14.44,72996.5,-2.39,-3.23,-3.31,0,*5F
1505963000.13,46887,14.38,72996.0,-2.39,-3.31,-3.31,0,*5D
1505963001.34,46888,14.38,73002.5,-2.41,-3.23,-3.23,0,*5D
1505963002.53,46889,14.38,72996.8,-2.39,-3.23,-3.23,0,*53
1505963003.73,46890,14.38,72986.5,-2.39,-3.31,-3.23,0,*58
1505963004.93,46891,14.44,73004.3,-2.39,-3.31,-3.31,0,*5A
1505963006.13,46892,14.38,72998.0,-2.39,-3.23,-3.31,0,*5A
1505963007.32,46893,14.38,72998.3,-2.39,-3.23,-3.23,0,*58
1505963008.52,46894,14.38,72980.0,-2.39,-3.23,-3.31,0,*5C
1505963009.72,46895,14.44,72980.0,-2.39,-3.35,-3.23,0,*59
1505963010.91,46896,14.38,72984.3,-2.35,-3.27,-3.19,0,*5C
1505963012.11,46897,14.38,72974.3,-2.35,-3.23,-3.19,0,*59
1505963013.3,46898,14.44,73008.8,-2.39,-3.23,-3.31,0,*50
1505963014.5,46899,14.38,72992.3,-2.39,-3.31,-3.31,0,*52
1505963015.69,46900,14.44,73002.0,-2.39,-3.23,-3.23,0,*53
1505963016.92,46901,14.38,73012.5,-2.37,-3.27,-3.19,0,*51
1505963018.14,46902,14.38,73014.3,-2.37,-3.19,-3.19,0,*5F
1505963019.33,46903,14.44,73010.8,-2.39,-3.23,-3.23,0,*50
1505963020.53,46904,14.38,73016.0,-2.39,-3.23,-3.23,0,*57
1505963021.75,46905,14.38,73012.8,-2.37,-3.19,-3.19,0,*58
1505963022.94,46906,14.38,73022.3,-2.39,-3.23,-3.23,0,*55
1505963024.13,46907,14.38,73036.0,-2.39,-3.23,-3.23,0,*54
1505963025.32,46908,14.44,73046.5,-2.39,-3.23,-3.23,0,*5B
1505963026.55,46909,14.38,73044.5,-2.37,-3.19,-3.27,0,*59
1505963027.78,46910,14.44,73046.8,-2.37,-3.19,-3.27,0,*51
1505963029.0,46911,14.38,73040.3,-2.37,-3.19,-3.19,0,*5D
1505963030.22,46912,14.44,73032.3,-2.37,-3.19,-3.19,0,*5E
1505963031.44,46913,14.44,73032.5,-2.37,-3.15,-3.19,0,*53
1505963032.66,46914,14.38,73046.8,-2.37,-3.19,-3.19,0,*58
1505963033.88,46915,14.38,73032.8,-2.37,-3.19,-3.19,0,*59
1505963035.11,46916,14.38,73030.0,-2.37,-3.19,-3.19,0,*5A
1505963036.33,46917,14.38,73020.8,-2.37,-3.19,-3.19,0,*5B
1505963037.56,46918,14.38,73010.0,-2.37,-3.19,-3.27,0,*59
1505963038.75,46919,14.38,73072.0,-2.35,-3.15,-3.15,0,*57
1505963039.95,46920,14.38,73054.5,-2.35,-3.19,-3.19,0,*5D
1505963041.15,46921,14.44,73028.0,-2.35,-3.27,-3.19,0,*51
1505963042.38,46922,14.38,73024.0,-2.37,-3.27,-3.27,0,*5D
1505963043.6,46923,14.44,73024.8,-2.37,-3.27,-3.19,0,*51
1505963044.83,46924,14.38,73024.0,-2.37,-3.19,-3.27,0,*56
1505963046.06,46925,14.38,73036.8,-2.37,-3.27,-3.27,0,*5A
1505963047.3,46926,14.38,73044.0,-2.37,-3.27,-3.27,0,*59
1505963048.53,46927,14.38,73024.3,-2.37,-3.19,-3.27,0,*55
1505963049.75,46928,14.38,72962.8,-2.37,-3.31,-3.31,0,*57
1505963050.98,46929,14.38,73024.0,-2.37,-3.27,-3.31,0,*51
1505963052.2,46930,14.38,73020.8,-2.37,-3.31,-3.31,0,*5E
1505963053.43,46931,14.38,73040.5,-2.37,-3.39,-3.31,0,*57
1505963054.63,46932,14.38,73020.0,-2.39,-3.31,-3.31,0,*52
1505963055.82,46933,14.38,72990.8,-2.39,-3.23,-3.23,0,*53
1505963057.02,46934,14.38,73064.5,-2.39,-3.31,-3.31,0,*54
1505963058.22,46935,14.38,73058.0,-2.39,-3.23,-3.31,0,*56
1505963059.45,46936,14.38,73038.8,-2.37,-3.27,-3.19,0,*55
1505963060.67,46937,14.38,73030.3,-2.37,-3.19,-3.19,0,*59
1505963061.86,46938,14.38,73034.8,-2.35,-3.15,-3.15,0,*54
1505963063.09,46939,14.38,73020.0,-2.37,-3.19,-3.27,0,*5A
1505963064.28,46940,14.38,73030.0,-2.39,-3.23,-3.23,0,*57
1505963065.48,46941,14.38,73012.0,-2.39,-3.31,-3.23,0,*55
1505963066.67,46942,14.38,73014.8,-2.39,-3.23,-3.23,0,*55
1505963067.91,46943,14.38,73036.0,-2.37,-3.27,-3.27,0,*5A
1505963069.14,46944,14.38,73032.8,-2.37,-3.27,-3.27,0,*5D
1505963070.34,46945,14.44,73028.8,-2.39,-3.31,-3.23,0,*51
1505963071.56,46946,14.38,73008.0,-2.37,-3.19,-3.27,0,*52
1505963072.76,46947,14.38,73026.0,-2.35,-3.23,-3.15,0,*59
1505963073.98,46948,14.38,73016.3,-2.37,-3.19,-3.19,0,*51
1505963075.2,46949,14.38,73054.3,-2.37,-3.27,-3.19,0,*5D
1505963076.4,46950,14.38,72992.3,-2.39,-3.31,-3.31,0,*56
1505963077.6,46951,14.38,73012.8,-2.39,-3.31,-3.23,0,*54
1505963078.82,46952,14.38,73030.3,-2.37,-3.19,-3.19,0,*5A
1505963080.02,46953,14.38,73024.5,-2.35,-3.15,-3.15,0,*59
1505963081.25,46954,14.38,73032.8,-2.37,-3.27,-3.19,0,*51
1505963082.44,46955,14.38,73036.0,-2.39,-3.23,-3.23,0,*53
1505963083.63,46956,14.38,73040.8,-2.39,-3.23,-3.31,0,*53
1505963084.83,46957,14.38,73052.5,-2.39,-3.23,-3.23,0,*51
1505963086.05,46958,14.38,73016.8,-2.37,-3.19,-3.27,0,*5D
1505963087.28,46959,14.38,73016.0,-2.37,-3.19,-3.27,0,*5C
1505963088.51,46960,14.38,73028.5,-2.37,-3.31,-3.31,0,*5B
1505963089.74,46961,14.38,73042.5,-2.37,-3.31,-3.27,0,*5D
1505963090.96,46962,14.38,73052.0,-2.37,-3.27,-3.19,0,*54
1505963092.17,46963,14.38,73040.5,-2.39,-3.31,-3.31,0,*56
1505963093.42,46964,14.38,73034.5,-2.39,-3.43,-3.43,0,*51
1505963094.64,46965,14.38,73042.8,-2.39,-3.35,-3.43,0,*51
1505963095.84,46966,14.38,73052.3,-2.39,-3.23,-3.31,0,*50
1505963097.04,46967,14.38,73028.5,-2.39,-3.35,-3.35,0,*52
1505963098.27,46968,14.38,73026.0,-2.39,-3.35,-3.43,0,*5C
1505963099.47,46969,14.38,73056.3,-2.39,-3.31,-3.31,0,*5C
1505963100.66,46970,14.38,73042.8,-2.39,-3.23,-3.23,0,*54
1505963101.88,46971,14.38,73038.8,-2.37,-3.19,-3.19,0,*5B
1505963103.1,46972,14.44,73020.3,-2.37,-3.19,-3.19,0,*58
1505963104.3,46973,14.38,73034.0,-2.39,-3.23,-3.31,0,*54
1505963105.5,46974,14.44,73042.5,-2.39,-3.31,-3.23,0,*53
1505963106.72,46975,14.38,73008.3,-2.37,-3.27,-3.19,0,*52
1505963107.95,46976,14.38,73008.0,-2.37,-3.39,-3.31,0,*54
1505963109.17,46977,14.38,73014.5,-2.37,-3.31,-3.31,0,*5D
1505963110.4,46978,14.38,73018.0,-2.37,-3.27,-3.31,0,*55
1505963111.63,46979,14.38,73016.5,-2.37,-3.27,-3.19,0,*5E
1505963112.85,46980,14.38,73028.8,-2.37,-3.19,-3.19,0,*55
1505963114.08,46981,14.38,73028.3,-2.37,-3.19,-3.27,0,*59
1505963115.31,46982,14.38,73022.0,-2.37,-3.27,-3.27,0,*57
1505963116.51,46983,14.38,73034.0,-2.39,-3.31,-3.31,0,*58
1505963117.71,46984,14.38,73038.3,-2.39,-3.31,-3.23,0,*5C
1505963118.91,46985,14.38,73012.8,-2.39,-3.31,-3.23,0,*5D
1505963120.13,46986,14.38,73026.0,-2.37,-3.31,-3.19,0,*59
1505963121.36,46987,14.38,73014.3,-2.37,-3.19,-3.27,0,*5F
1505963122.58,46988,14.44,73022.5,-2.37,-3.19,-3.19,0,*5D
1505963123.8,46989,14.38,73012.3,-2.37,-3.19,-3.19,0,*5C
1505963125.03,46990,14.38,73022.0,-2.37,-3.27,-3.19,0,*59
1505963126.25,46991,14.38,73024.0,-2.37,-3.19,-3.19,0,*55
1505963127.47,46992,14.38,73022.5,-2.37,-3.19,-3.19,0,*56
1505963128.69,46993,14.38,73010.3,-2.37,-3.19,-3.19,0,*57
1505963129.92,46994,14.38,72986.0,-2.37,-3.27,-3.27,0,*50
1505963131.13,46995,14.38,72990.3,-2.35,-3.19,-3.27,0,*5E
1505963132.35,46996,14.38,73008.5,-2.37,-3.19,-3.19,0,*52
1505963133.57,46997,14.38,73036.8,-2.37,-3.19,-3.19,0,*53
1505963134.79,46998,14.38,73038.8,-2.37,-3.27,-3.31,0,*5B
1505963136.0,46999,14.38,73030.3,-2.39,-3.31,-3.31,0,*53
1505963137.19,47000,14.38,72976.8,-2.39,-3.23,-3.23,0,*5B
1505963138.38,47001,14.38,72994.5,-2.39,-3.23,-3.31,0,*59
1505963139.58,47002,14.38,73016.3,-2.39,-3.31,-3.23,0,*5A
1505963140.8,47003,14.38,73010.5,-2.37,-3.19,-3.19,0,*56
1505963142.03,47004,14.38,73016.8,-2.37,-3.27,-3.27,0,*51
1505963143.27,47005,14.38,72968.8,-2.37,-3.27,-3.27,0,*50
1505963144.49,47006,14.38,72986.8,-2.37,-3.27,-3.31,0,*54
1505963145.7,47007,14.38,72986.3,-2.39,-3.31,-3.35,0,*58
1505963146.9,47008,14.38,72984.0,-2.39,-3.31,-3.31,0,*53
1505963148.13,47009,14.44,72984.8,-2.37,-3.31,-3.31,0,*5C
1505963149.33,47010,14.38,72982.3,-2.39,-3.35,-3.35,0,*5A
1505963150.56,47011,14.38,72976.8,-2.37,-3.39,-3.31,0,*5D
1505963151.78,47012,14.38,72972.3,-2.37,-3.31,-3.31,0,*56
1505963153.01,47013,14.38,72970.3,-2.37,-3.31,-3.31,0,*57
1505963154.21,47014,14.38,72992.8,-2.39,-3.35,-3.35,0,*5E
1505963155.42,47015,14.38,72980.8,-2.39,-3.35,-3.31,0,*5B
1505963156.63,47016,14.38,72962.8,-2.41,-3.31,-3.23,0,*50
1505963157.84,47017,14.38,72968.3,-2.39,-3.31,-3.31,0,*5D
1505963159.04,47018,14.38,72984.3,-2.39,-3.31,-3.31,0,*52
1505963160.24,47019,14.38,72968.3,-2.39,-3.31,-3.31,0,*53
1505963161.46,47020,14.38,72984.8,-2.41,-3.31,-3.23,0,*55
1505963162.66,47021,14.38,72994.8,-2.39,-3.23,-3.31,0,*5B
1505963163.88,47022,14.38,72998.0,-2.37,-3.27,-3.19,0,*58
1505963165.11,47023,14.44,73016.0,-2.37,-3.19,-3.27,0,*59
1505963166.3,47024,14.38,73016.0,-2.39,-3.23,-3.23,0,*5D
1505963167.49,47025,14.38,73030.3,-2.39,-3.23,-3.23,0,*5C
1505963168.69,47026,14.38,73044.5,-2.39,-3.31,-3.23,0,*5C
1505963169.88,47027,14.38,73050.8,-2.39,-3.23,-3.23,0,*5E
1505963171.08,47028,14.38,73034.8,-2.39,-3.23,-3.31,0,*52
1505963172.28,47029,14.38,73054.0,-2.39,-3.31,-3.31,0,*50
1505963173.48,47030,14.38,73050.5,-2.39,-3.31,-3.31,0,*58
1505963174.68,47031,14.38,73060.8,-2.39,-3.23,-3.31,0,*5A
1505963175.87,47032,14.38,73052.8,-2.39,-3.23,-3.23,0,*5A
1505963177.07,47033,14.38,73044.0,-2.39,-3.31,-3.31,0,*5B
1505963178.27,47034,14.38,73040.0,-2.39,-3.31,-3.31,0,*5C
1505963179.48,47035,14.38,73034.8,-2.39,-3.31,-3.31,0,*5D
1505963180.68,47036,14.38,73018.0,-2.39,-3.31,-3.31,0,*5E
1505963181.88,47037,14.38,73008.8,-2.39,-3.31,-3.23,0,*5C
1505963183.07,47038,14.38,73034.3,-2.39,-3.31,-3.23,0,*53
1505963184.27,47039,14.38,73032.8,-2.39,-3.23,-3.31,0,*52
1505963185.47,47040,14.38,72988.3,-2.39,-3.31,-3.31,0,*5F
1505963186.66,47041,14.38,72988.3,-2.39,-3.23,-3.23,0,*5E
1505963187.86,47042,14.38,73008.8,-2.39,-3.23,-3.31,0,*5E
1505963189.08,47043,14.38,73040.8,-2.41,-3.31,-3.23,0,*50
1505963190.27,47044,14.38,73040.5,-2.39,-3.23,-3.31,0,*58
1505963191.48,47045,14.38,73048.0,-2.39,-3.31,-3.35,0,*5E
1505963192.68,47046,14.38,73030.8,-2.39,-3.31,-3.31,0,*59
1505963193.89,47047,14.38,72980.3,-2.39,-3.35,-3.35,0,*58
1505963195.09,47048,14.38,72980.3,-2.39,-3.35,-3.35,0,*57
1505963196.32,47049,14.38,72980.0,-2.39,-3.43,-3.35,0,*57
1505963197.55,47050,14.38,73016.8,-2.39,-3.43,-3.35,0,*5F
1505963198.79,47051,14.38,73014.8,-2.41,-3.43,-3.31,0,*55
1505963200.01,47052,14.38,73006.5,-2.41,-3.35,-3.31,0,*57
1505963201.21,47053,14.38,72990.3,-2.39,-3.31,-3.31,0,*5D
1505963202.42,47054,14.38,72952.3,-2.39,-3.31,-3.35,0,*5E
1505963203.62,47055,14.38,72916.5,-2.39,-3.35,-3.35,0,*5B
1505963204.85,47056,14.38,72938.3,-2.39,-3.43,-3.35,0,*59
1505963206.06,47057,14.38,72914.5,-2.39,-3.35,-3.35,0,*59
1505963207.31,47058,14.38,72898.5,-2.39,-3.43,-3.43,0,*56
1505963208.53,47059,14.38,72932.0,-2.39,-3.43,-3.35,0,*56
1505963209.78,47060,14.38,72952.0,-2.41,-3.35,-3.43,0,*53
1505963210.98,47061,14.38,72940.0,-2.39,-3.35,-3.35,0,*5C
1505963212.21,47062,14.38,72958.5,-2.39,-3.43,-3.35,0,*5E
1505963213.42,47063,14.38,72958.8,-2.39,-3.31,-3.35,0,*5A
1505963214.64,47064,14.44,73024.0,-2.41,-3.31,-3.35,0,*52
1505963215.85,47065,14.38,73006.8,-2.39,-3.31,-3.35,0,*5C
1505963217.06,47066,14.38,73014.0,-2.41,-3.23,-3.23,0,*54
1505963218.25,47067,14.38,73004.5,-2.39,-3.23,-3.23,0,*5A
1505963219.46,47068,14.38,73008.8,-2.41,-3.23,-3.31,0,*59
1505963220.66,47069,14.38,73018.0,-2.39,-3.31,-3.23,0,*57
1505963221.85,47070,14.38,73018.5,-2.39,-3.23,-3.23,0,*5C
1505963223.05,47071,14.38,73018.5,-2.39,-3.31,-3.23,0,*5E
1505963224.24,47072,14.38,73016.5,-2.39,-3.23,-3.23,0,*5E
1505963225.44,47073,14.38,73024.3,-2.39,-3.31,-3.23,0,*5C
1505963226.69,47074,14.38,73018.0,-2.41,-3.35,-3.43,0,*56
1505963227.9,47075,14.38,73022.5,-2.41,-3.23,-3.31,0,*55
1505963229.11,47076,14.38,73030.0,-2.39,-3.31,-3.31,0,*5A
1505963230.3,47077,14.38,73018.3,-2.39,-3.23,-3.23,0,*5B
1505963231.49,47078,14.38,73028.0,-2.39,-3.23,-3.23,0,*54
1505963232.68,47079,14.38,73028.3,-2.39,-3.23,-3.23,0,*55
1505963233.87,47080,14.38,73030.3,-2.39,-3.23,-3.23,0,*53
1505963235.06,47081,14.38,73022.5,-2.39,-3.23,-3.23,0,*52
1505963236.25,47082,14.38,73032.3,-2.39,-3.23,-3.23,0,*51
1505963237.48,47083,14.38,73012.5,-2.41,-3.31,-3.31,0,*5F
1505963238.68,47084,14.38,73018.5,-2.39,-3.31,-3.31,0,*57
1505963239.87,47085,14.38,73016.3,-2.39,-3.23,-3.23,0,*56
1505963241.06,47086,14.38,73026.5,-2.39,-3.23,-3.23,0,*55
1505963242.26,47087,14.38,73018.3,-2.39,-3.23,-3.31,0,*57
1505963243.48,47088,14.38,73026.8,-2.41,-3.31,-3.31,0,*54
1505963244.68,47089,14.38,73012.8,-2.39,-3.31,-3.23,0,*59
1505963245.88,47090,14.38,73014.5,-2.39,-3.31,-3.23,0,*51
1505963247.07,47091,14.38,73014.5,-2.39,-3.23,-3.23,0,*53
1505963248.27,47092,14.38,73020.5,-2.39,-3.31,-3.31,0,*50
1505963249.46,47093,14.38,73020.8,-2.39,-3.23,-3.23,0,*51
1505963250.65,47094,14.38,73028.0,-2.39,-3.23,-3.23,0,*56
1505963251.85,47095,14.38,73038.8,-2.39,-3.31,-3.23,0,*54
1505963253.05,47096,14.38,73030.3,-2.39,-3.31,-3.31,0,*54
1505963254.25,47097,14.38,73022.5,-2.39,-3.23,-3.31,0,*56
1505963255.44,47098,14.38,73020.0,-2.39,-3.23,-3.23,0,*5A
1505963256.63,47099,14.38,73022.3,-2.39,-3.23,-3.23,0,*5B
1505963257.82,47100,14.38,73028.3,-2.39,-3.23,-3.23,0,*5A
1505963259.01,47101,14.38,73030.3,-2.39,-3.23,-3.23,0,*5B
1505963260.21,47102,14.38,73010.5,-2.39,-3.31,-3.23,0,*5B
1505963261.41,47103,14.38,73014.5,-2.39,-3.23,-3.31,0,*5A
1505963262.6,47104,14.38,73026.5,-2.39,-3.23,-3.31,0,*5D
1505963263.79,47105,14.38,73028.3,-2.39,-3.23,-3.23,0,*5F
1505963264.99,47106,14.38,73026.3,-2.39,-3.31,-3.23,0,*5F
1505963266.18,47107,14.38,73026.8,-2.39,-3.23,-3.23,0,*5D
1505963267.38,47108,14.38,73022.0,-2.39,-3.23,-3.23,0,*52
1505963268.6,47109,14.38,73026.8,-2.37,-3.19,-3.19,0,*5D
1505963269.79,47110,14.38,73018.0,-2.35,-3.23,-3.15,0,*52
1505963271.01,47111,14.38,73018.5,-2.37,-3.27,-3.19,0,*59
1505963272.22,47112,14.38,73014.8,-2.39,-3.31,-3.31,0,*59
1505963273.41,47113,14.38,73010.3,-2.39,-3.23,-3.23,0,*58
1505963274.6,47114,14.38,73014.5,-2.39,-3.23,-3.23,0,*5F
1505963275.79,47115,14.38,73022.3,-2.39,-3.23,-3.23,0,*5E
1505963277.01,47116,14.38,73026.0,-2.37,-3.19,-3.19,0,*53
1505963278.2,47117,14.38,73030.3,-2.39,-3.23,-3.23,0,*5C
1505963279.41,47118,14.38,73038.8,-2.39,-3.31,-3.31,0,*53
1505963280.61,47119,14.38,73042.5,-2.39,-3.31,-3.31,0,*52
1505963281.84,47120,14.38,73042.8,-2.37,-3.19,-3.27,0,*5B
1505963283.03,47121,14.38,73046.5,-2.35,-3.15,-3.15,0,*55
1505963284.26,47122,14.38,73038.3,-2.37,-3.19,-3.27,0,*59
1505963285.49,47123,14.38,73050.3,-2.37,-3.27,-3.19,0,*58
1505963286.71,47124,14.38,73054.3,-2.37,-3.19,-3.19,0,*52
1505963287.93,47125,14.38,73058.8,-2.37,-3.19,-3.19,0,*53
1505963289.15,47126,14.38,73050.0,-2.37,-3.19,-3.19,0,*50
1505963290.35,47127,14.38,73044.0,-2.35,-3.15,-3.19,0,*5F
1505963291.54,47128,14.38,73030.8,-2.39,-3.23,-3.31,0,*53
1505963292.74,47129,14.38,73032.5,-2.39,-3.31,-3.23,0,*52
1505963293.94,47130,14.38,73032.3,-2.39,-3.23,-3.31,0,*5A
1505963295.13,47131,14.38,73032.3,-2.39,-3.23,-3.23,0,*58
1505963296.33,47132,14.38,73042.5,-2.39,-3.31,-3.23,0,*58
1505963297.55,47133,14.38,73010.5,-2.37,-3.27,-3.19,0,*59
1505963298.78,47134,14.38,73038.0,-2.37,-3.27,-3.19,0,*5E
1505963300.01,47135,14.38,73044.0,-2.37,-3.19,-3.27,0,*5F
1505963301.23,47136,14.38,73034.0,-2.37,-3.19,-3.27,0,*5C